• în Republica Moldova
  • Lista ţărilor
  • Pe 7 zile
  • Temperatura apei
  • Hartă satelitară
  • Meteo pe hartă
  • Widget-uri
  • user-avatar
    Intrare

    Meteo pe oră la Lubango

    Astăzi, 30 Martie, Joi

    Timp Temperatura Precipitaţii Vânt Presiune Umiditate
    00:00 +16°C° 0,2 mm 1 m/s 609 mmHg 82%
    01:00 +16°C° 0 mm 1 m/s 609 mmHg 83%
    02:00 +16°C° 0 mm 1 m/s 608 mmHg 83%
    03:00 +15°C° 0 mm 1 m/s 608 mmHg 83%
    04:00 +15°C° 0 mm 1 m/s 608 mmHg 83%
    05:00 +15°C° 0,1 mm 1 m/s 608 mmHg 83%
    06:00 +15°C° 0,1 mm 1 m/s 609 mmHg 83%
    07:00 +16°C° 0 mm 2 m/s 609 mmHg 81%
    08:00 +18°C° 0 mm 2 m/s 610 mmHg 73%
    09:00 +20°C° 0 mm 3 m/s 611 mmHg 64%
    10:00 +22°C° 0 mm 4 m/s 612 mmHg 56%
    11:00 +24°C° 0,4 mm 3 m/s 611 mmHg 55%
    12:00 +25°C° 0,4 mm 3 m/s 611 mmHg 53%
    13:00 +25°C° 0,4 mm 3 m/s 611 mmHg 52%
    14:00 +25°C° 0,6 mm 2 m/s 611 mmHg 54%
    15:00 +25°C° 0,6 mm 1 m/s 610 mmHg 57%
    16:00 +24°C° 0,6 mm 1 m/s 610 mmHg 59%
    17:00 +22°C° 0,6 mm 1 m/s 609 mmHg 66%
    18:00 +20°C° 0,6 mm 1 m/s 609 mmHg 73%
    19:00 +18°C° 0,6 mm 1 m/s 609 mmHg 80%
    20:00 +18°C° 0,3 mm 1 m/s 609 mmHg 82%
    21:00 +18°C° 0,3 mm 1 m/s 609 mmHg 84%
    22:00 +16°C° 0,3 mm 1 m/s 609 mmHg 86%
    23:00 +16°C° 0,2 mm 1 m/s 609 mmHg 86%

    Mâine, 31 Martie, Vineri

    Timp Temperatura Precipitaţii Vânt Presiune Umiditate
    00:00 +16°C° 0,2 mm 1 m/s 609 mmHg 85%
    01:00 +16°C° 0,2 mm 1 m/s 609 mmHg 85%
    02:00 +16°C° 0,3 mm 1 m/s 609 mmHg 85%
    03:00 +16°C° 0,3 mm 1 m/s 609 mmHg 85%
    04:00 +16°C° 0,3 mm 1 m/s 608 mmHg 85%
    05:00 +16°C° 0 mm 1 m/s 609 mmHg 84%
    06:00 +16°C° 0 mm 1 m/s 609 mmHg 83%
    07:00 +16°C° 0 mm 1 m/s 609 mmHg 82%
    08:00 +18°C° 0 mm 2 m/s 610 mmHg 73%
    09:00 +20°C° 0 mm 3 m/s 611 mmHg 64%
    10:00 +23°C° 0 mm 4 m/s 612 mmHg 55%
    11:00 +23°C° 0,2 mm 4 m/s 612 mmHg 52%
    12:00 +25°C° 0,2 mm 4 m/s 612 mmHg 50%
    13:00 +26°C° 0,2 mm 3 m/s 611 mmHg 48%
    14:00 +26°C° 0,4 mm 3 m/s 611 mmHg 49%
    15:00 +26°C° 0,4 mm 2 m/s 610 mmHg 50%
    16:00 +25°C° 0,4 mm 1 m/s 610 mmHg 51%
    17:00 +23°C° 0,6 mm 1 m/s 610 mmHg 60%
    18:00 +21°C° 0,6 mm 1 m/s 609 mmHg 69%
    19:00 +19°C° 0,6 mm 1 m/s 609 mmHg 77%
    20:00 +18°C° 0,6 mm 1 m/s 609 mmHg 79%
    21:00 +18°C° 0,6 mm 1 m/s 610 mmHg 81%
    22:00 +16°C° 0,6 mm 1 m/s 610 mmHg 83%
    23:00 +16°C° 0 mm 1 m/s 610 mmHg 84%

    Poimâine, 1 Aprilie, Sâmbătă

    Timp Temperatura Precipitaţii Vânt Presiune Umiditate
    00:00 +15°C° 0 mm 1 m/s 609 mmHg 84%
    01:00 +15°C° 0 mm 1 m/s 609 mmHg 85%
    02:00 +15°C° 0 mm 1 m/s 609 mmHg 86%
    03:00 +14°C° 0 mm 1 m/s 608 mmHg 86%
    04:00 +14°C° 0 mm 1 m/s 608 mmHg 86%
    05:00 +15°C° 0,1 mm 1 m/s 609 mmHg 85%
    06:00 +15°C° 0,1 mm 1 m/s 609 mmHg 84%
    07:00 +16°C° 0,1 mm 1 m/s 610 mmHg 82%
    08:00 +18°C° 0 mm 2 m/s 611 mmHg 73%
    09:00 +20°C° 0 mm 2 m/s 612 mmHg 63%
    10:00 +24°C° 0 mm 3 m/s 613 mmHg 54%
    11:00 +25°C° 0,1 mm 3 m/s 613 mmHg 50%
    12:00 +26°C° 0,1 mm 2 m/s 613 mmHg 46%
    13:00 +27°C° 0,1 mm 2 m/s 612 mmHg 42%
    14:00 +26°C° 0,4 mm 2 m/s 612 mmHg 44%
    15:00 +26°C° 0,4 mm 2 m/s 611 mmHg 46%
    16:00 +26°C° 0,4 mm 1 m/s 610 mmHg 48%
    17:00 +23°C° 0,1 mm 1 m/s 610 mmHg 56%
    18:00 +21°C° 0,1 mm 1 m/s 609 mmHg 64%
    19:00 +19°C° 0,1 mm 1 m/s 609 mmHg 72%
    20:00 +18°C° 0 mm 1 m/s 609 mmHg 76%
    21:00 +16°C° 0 mm 1 m/s 609 mmHg 79%
    22:00 +16°C° 0 mm 1 m/s 609 mmHg 82%
    23:00 +15°C° 0 mm 1 m/s 609 mmHg 83%

    2 Aprilie, Duminică

    Timp Temperatura Precipitaţii Vânt Presiune Umiditate
    00:00 +15°C° 0 mm 1 m/s 609 mmHg 85%
    01:00 +15°C° 0 mm 1 m/s 608 mmHg 86%
    02:00 +14°C° 0 mm 1 m/s 608 mmHg 84%
    03:00 +14°C° 0 mm 1 m/s 608 mmHg 81%
    04:00 +14°C° 0 mm 1 m/s 607 mmHg 79%
    05:00 +14°C° 0 mm 1 m/s 608 mmHg 77%
    06:00 +15°C° 0 mm 1 m/s 609 mmHg 75%
    07:00 +15°C° 0 mm 1 m/s 609 mmHg 73%
    08:00 +18°C° 0 mm 2 m/s 610 mmHg 64%
    09:00 +21°C° 0 mm 2 m/s 612 mmHg 56%
    10:00 +24°C° 0 mm 3 m/s 613 mmHg 47%
    11:00 +25°C° 0 mm 3 m/s 613 mmHg 43%
    12:00 +26°C° 0 mm 3 m/s 612 mmHg 40%
    13:00 +27°C° 0 mm 2 m/s 612 mmHg 36%
    14:00 +27°C° 0 mm 2 m/s 611 mmHg 37%
    15:00 +27°C° 0 mm 1 m/s 611 mmHg 38%
    16:00 +26°C° 0 mm 1 m/s 610 mmHg 39%
    17:00 +24°C° 0 mm 1 m/s 609 mmHg 45%
    18:00 +21°C° 0 mm 1 m/s 609 mmHg 51%
    19:00 +19°C° 0 mm 1 m/s 608 mmHg 57%
    20:00 +18°C° 0 mm 1 m/s 608 mmHg 59%
    21:00 +16°C° 0 mm 1 m/s 609 mmHg 60%
    22:00 +16°C° 0 mm 1 m/s 609 mmHg 62%
    23:00 +15°C° 0 mm 1 m/s 608 mmHg 64%

    3 Aprilie, Luni

    Timp Temperatura Precipitaţii Vânt Presiune Umiditate
    00:00 +15°C° 0 mm 1 m/s 608 mmHg 65%
    01:00 +14°C° 0 mm 1 m/s 608 mmHg 67%
    02:00 +14°C° 0 mm 1 m/s 607 mmHg 64%
    03:00 +14°C° 0 mm 1 m/s 607 mmHg 61%
    04:00 +13°C° 0 mm 1 m/s 607 mmHg 59%
    05:00 +14°C° 0 mm 2 m/s 607 mmHg 57%
    06:00 +14°C° 0 mm 2 m/s 608 mmHg 55%
    07:00 +14°C° 0 mm 2 m/s 608 mmHg 53%
    08:00 +18°C° 0 mm 3 m/s 610 mmHg 46%
    09:00 +21°C° 0 mm 3 m/s 611 mmHg 38%
    10:00 +25°C° 0 mm 3 m/s 612 mmHg 31%
    11:00 +26°C° 0 mm 3 m/s 612 mmHg 29%
    12:00 +27°C° 0 mm 3 m/s 612 mmHg 28%
    13:00 +28°C° 0 mm 3 m/s 611 mmHg 26%
    14:00 +28°C° 0 mm 3 m/s 611 mmHg 28%
    15:00 +28°C° 0 mm 2 m/s 611 mmHg 29%
    16:00 +28°C° 0 mm 2 m/s 610 mmHg 31%
    17:00 +25°C° 0 mm 2 m/s 609 mmHg 38%
    18:00 +21°C° 0 mm 2 m/s 609 mmHg 44%
    19:00 +19°C° 0 mm 1 m/s 608 mmHg 51%
    20:00 +18°C° 0 mm 1 m/s 608 mmHg 51%
    21:00 +18°C° 0 mm 1 m/s 609 mmHg 52%
    22:00 +17°C° 0 mm 2 m/s 609 mmHg 52%
    23:00 +17°C° 0 mm 2 m/s 609 mmHg 52%

    4 Aprilie, Marţi

    Timp Temperatura Precipitaţii Vânt Presiune Umiditate
    00:00 +16°C° 0 mm 2 m/s 608 mmHg 53%
    01:00 +16°C° 0 mm 2 m/s 608 mmHg 53%
    02:00 +15°C° 0 mm 2 m/s 608 mmHg 55%
    03:00 +15°C° 0 mm 2 m/s 607 mmHg 56%
    04:00 +15°C° 0 mm 2 m/s 607 mmHg 58%
    05:00 +15°C° 0 mm 2 m/s 608 mmHg 59%
    06:00 +15°C° 0 mm 2 m/s 608 mmHg 61%
    07:00 +15°C° 0 mm 2 m/s 609 mmHg 63%
    08:00 +18°C° 0 mm 3 m/s 610 mmHg 55%
    09:00 +21°C° 0 mm 3 m/s 611 mmHg 47%
    10:00 +25°C° 0 mm 4 m/s 612 mmHg 39%
    11:00 +26°C° 0 mm 4 m/s 612 mmHg 36%
    12:00 +27°C° 0 mm 3 m/s 611 mmHg 33%
    13:00 +28°C° 0 mm 3 m/s 611 mmHg 30%
    14:00 +28°C° 0 mm 3 m/s 611 mmHg 31%
    15:00 +28°C° 0 mm 2 m/s 610 mmHg 31%
    16:00 +28°C° 0 mm 2 m/s 610 mmHg 31%
    17:00 +24°C° 0 mm 1 m/s 609 mmHg 38%
    18:00 +21°C° 0 mm 1 m/s 608 mmHg 45%
    19:00 +18°C° 0 mm 1 m/s 607 mmHg 51%
    20:00 +18°C° 0 mm 1 m/s 608 mmHg 52%
    21:00 +16°C° 0 mm 1 m/s 608 mmHg 53%
    22:00 +15°C° 0 mm 1 m/s 608 mmHg 54%
    23:00 +15°C° 0 mm 1 m/s 608 mmHg 54%
    Arată mai mult